Location: Bastelaar
(51.0950°N, 3.8602°E)
Time: 16:58:26
(UTC+00:00)

Resurs 01 Rocket - Pass Details

Date: 18 November 2025
Orbit: 626 x 637 km, 97.7° (Epoch: 13 December)

Event Time Altitude Azimuth Distance (km) Brightness Sun altitude
Exits shadow 19:07:36 25° 332° (NNW) 1,303 3.4 -30.3°
Drops below altitude 10° 19:09:31 10° 340° (NNW) 2,037 4.5 -30.5°
Sets 19:11:46 0° 344° (NNW) 2,949 5.3 -30.9°
